sat.trackr.live / text

‹ back to catalog

STARLINK-36904

NORAD 67977 · 2026-038S

PAYLOAD ACTIVE UNKNOWN

§ Identity

Operator
Country
US
Launch date
2026-02-25
Launch site
AFWTR
Launch vehicle
Mass (kg)
RCS (m²)

Purposes: comms

External: N2YO · Heavens-Above · Gunter

§ Orbital elements

Epoch: 2026-09-19T23:09:14.849280Z

Period
93.91 min
Inclination
97.2850°
Eccentricity
0.0001848
Mean motion
15.33455676 rev/d
Perigee alt
464.2 km
Apogee alt
466.8 km
Semi-major
6,843.6 km
B*
4.5822e-4
RAAN
271.3475°
Arg perigee
92.9804°
Mean anomaly
267.1651°
Rev number
3,301

§ Raw data

STARLINK-369041 67977U 26038S   26262.96475520  .00014752  00000+0  45822-3 0  99932 67977  97.2850 271.3475 0001848  92.9804 267.1651 15.33455676 33011

JSON: /api/v1/satellites/67977 · /tle

For live sub-satellite position, see the globe view (requires WebGL).

§ Visibility from observer

Set your observer location to see the next 7 days of passes ≥ 10°. The values pass through the URL so the page stays shareable.

No JS? Fill the form by hand. The geolocation button needs JavaScript.